Location: Newark
(34.9471°N, 136.1778°E)
Time: 08:48:40
(UTC+00:00)

LilacSat-2 - Pass Details

Date: 01 March 2020
Orbit: 514 x 534 km, 97.5° (Epoch: 07 April)

Event Time Altitude Azimuth Distance (km) Brightness Sun altitude
Rises 20:25:19 0° 17° (NNE) 2,660 ? -12.7°
Reaches altitude 10° 20:27:28 10° 22° (NNE) 1,771 ? -12.3°
Maximum altitude 20:31:12 52° 99° (E) 661 ? -11.5°
Drops below altitude 10° 20:34:56 10° 177° (S) 1,769 ? -10.7°
Sets 20:37:04 0° 182° (S) 2,657 ? -10.3°
